Location: Irma
(52.9170°N, 111.2330°W)
Time: 15:28:12
(UTC-06:00)

Cosmos 1633 Rocket - Visible Passes

Search period start: 03 September 2015 00:00
Search period end: 13 September 2015 00:00
Orbit: 607 x 625 km, 82.5° (Epoch: 02 September)

Date Brightness Start Highest point End Pass type
(mag) Time Alt. Az. Time Alt. Az. Time Alt. Az.
03 Sep 3.6 00:02:51 10° N 00:06:21 55° N 00:06:21 55° N visible
03 Sep 5.6 01:42:14 10° NW 01:43:26 13° WNW 01:43:26 13° WNW visible
03 Sep 4.7 22:42:15 10° NNE 22:45:30 20° ENE 22:45:36 20° ENE visible
04 Sep 4.0 00:19:25 10° NNW 00:22:41 45° NW 00:22:41 45° NW visible
04 Sep 4.2 22:58:21 10° N 23:01:57 30° ENE 23:01:57 30° ENE visible
05 Sep 4.6 00:36:07 10° NNW 00:39:02 31° WNW 00:39:02 31° WNW visible
05 Sep 3.7 23:14:38 10° N 23:18:19 45° NE 23:18:19 45° NE visible
06 Sep 5.2 00:53:02 10° NW 00:55:24 20° WNW 00:55:24 20° WNW visible
06 Sep 5.1 21:54:48 10° NNE 21:56:49 13° ENE 21:57:36 13° ENE visible
06 Sep 3.5 23:31:05 10° N 23:34:41 58° N 23:34:41 58° N visible
07 Sep 5.6 01:10:23 10° NW 01:11:47 13° WNW 01:11:47 13° WNW visible
07 Sep 4.7 22:10:29 10° NNE 22:13:43 20° ENE 22:13:59 20° ENE visible
07 Sep 3.9 23:47:38 10° NNW 23:51:04 48° NW 23:51:04 48° NW visible
08 Sep 4.1 22:26:35 10° N 22:30:22 30° ENE 22:30:22 30° ENE visible
09 Sep 4.5 00:04:20 10° NNW 00:07:28 33° WNW 00:07:28 33° WNW visible
09 Sep 3.6 22:42:52 10° N 22:46:46 46° NE 22:46:46 46° NE visible
10 Sep 5.1 00:21:14 10° NW 00:23:52 22° WNW 00:23:52 22° WNW visible
10 Sep 5.1 21:23:04 10° NNE 21:25:02 13° ENE 21:26:05 12° ENE visible
10 Sep 3.2 22:59:18 10° N 23:03:11 66° NNE 23:03:11 66° NNE visible
11 Sep 5.6 00:38:32 10° NW 00:40:17 14° WNW 00:40:17 14° WNW visible
11 Sep 4.6 21:38:44 10° NNE 21:41:55 19° ENE 21:42:31 19° ENE visible
11 Sep 3.6 23:15:51 10° NNW 23:19:37 56° WNW 23:19:37 56° WNW visible
12 Sep 4.1 21:54:49 10° N 21:58:42 30° ENE 21:58:57 29° ENE visible
12 Sep 4.4 23:32:32 10° NNW 23:36:03 36° WNW 23:36:03 36° WNW visible
